This demonstration page uses our WeatherBlox Daily Observations layout. Learn more.

Hourly Observations for July 21, 2018

Temp ( °F °C ) Dew Point ( °F °C ) Humidity (%) Winds ( mph kmh ) Pressure ( in mb ) Visibility ( mi km ) Precip ( " mm )
12:15 am 00:15 Clear 69 20.6 69 20.5 99 99 E 6 9 29.97 1015 7 11.26538 0 0
12:35 am 00:35 Clear 69 20.3 69 20.3 100 100 E 5 7 29.97 1015 7 11.26538 0 0
12:55 am 00:55 Clear with Mist and Fog 68 20.1 68 20.1 100 100 E 5 7 29.97 1015 5 8.0467 0 0
1:15 am 01:15 Clear 68 20.1 68 20.1 100 100 ESE 3 6 29.97 1015 7 11.26538 0 0
1:35 am 01:35 Clear 68 20.1 68 20.1 100 100 Calm 30.03 1017 7 11.26538 0 0
1:55 am 01:55 Clear 68 20.1 68 20.1 100 100 Calm 30.03 1017 7 11.26538 0 0
2:15 am 02:15 Clear 68 20 68 20 100 100 Calm 30.03 1017 7 11.26538 0 0
2:35 am 02:35 Clear 67 19.5 67 19.5 100 100 E 5 7 30 1016 7 11.26538 0 0
2:55 am 02:55 Clear 67 19.6 67 19.5 99 99 SE 3 6 30 1016 10 16.0934 0 0
3:15 am 03:15 Clear 67 19.2 66 19 99 99 SE 5 7 30 1016 7 11.26538 0 0
3:35 am 03:35 Clear with Mist and Fog 65 18.5 65 18.5 100 100 E 3 6 30 1016 5 8.0467 0 0
3:55 am 03:55 Clear with Mist and Fog 65 18.6 65 18.6 100 100 E 5 7 30 1016 5 8.0467 0 0
4:15 am 04:15 Clear 66 18.8 66 18.8 100 100 ENE 5 7 30 1016 7 11.26538 0 0
4:35 am 04:35 Clear 65 18.5 65 18.5 100 100 ENE 6 9 30 1016 7 11.26538 0 0
4:55 am 04:55 Clear with Mist and Fog 65 18.3 65 18.3 100 100 Calm 30 1016 5 8.0467 0 0
5:15 am 05:15 Clear with Mist and Fog 64 18 64 18 100 100 NE 5 7 30 1016 4 6.43736 0 0
5:35 am 05:35 Clear 65 18.2 65 18.2 100 100 E 3 6 30 1016 7 11.26538 0 0
5:55 am 05:55 Clear with Mist and Fog 64 17.8 64 17.8 100 100 ENE 5 7 30 1016 5 8.0467 0 0
6:15 am 06:15 Clear with Mist and Fog 64 17.6 64 17.6 100 100 Calm 30 1016 5 8.0467 0 0
6:35 am 06:35 Sunny with Mist and Fog 64 17.7 64 17.7 100 100 Calm 30 1016 3 4.82802 0 0
6:55 am 06:55 Sunny with Mist and Fog 65 18.1 65 18.1 100 100 Calm 30.03 1017 5 8.0467 0 0
7:15 am 07:15 Sunny with Mist and Fog 65 18.6 65 18.5 99 99 Calm 30 1016 5 8.0467 0 0
7:35 am 07:35 Sunny with Mist and Fog 67 19.2 66 19 99 99 Calm 30.03 1017 5 8.0467 0 0
7:55 am 07:55 Sunny 68 19.9 67 19.2 96 96 Calm 30.03 1017 10 16.0934 0 0
8:15 am 08:15 Sunny 69 20.8 67 19.6 93 93 Calm 30 1016 10 16.0934 0 0
8:35 am 08:35 Sunny 70 21.2 68 19.9 92 92 S 3 6 30 1016 10 16.0934 0 0
8:55 am 08:55 Sunny 71 21.6 68 20.1 91 91 SSE 5 7 30.03 1017 7 11.26538 0 0
9:15 am 09:15 Sunny 72 22.2 69 20.5 90 90 SE 5 7 30.03 1017 10 16.0934 0 0
9:35 am 09:35 Sunny 73 23 69 20.8 87 87 SE 7 11 30.03 1017 10 16.0934 0 0
9:55 am 09:55 Sunny 74 23.6 70 21 85 85 SSE 3 6 30.03 1017 10 16.0934 0 0
10:15 am 10:15 Sunny 75 24 69 20.6 81 81 SSE 7 11 30.03 1017 10 16.0934 0 0
10:35 am 10:35 Partly Cloudy 77 24.8 69 20.3 76 76 SSE 8 13 30 1016 10 16.0934 0 0
10:55 am 10:55 Partly Cloudy 76 24.7 68 20.2 76 76 SSE 7 11 30 1016 10 16.0934 0 0
11:15 am 11:15 Partly Cloudy 78 25.8 68 20.2 71 71 SE 9 15 30 1016 10 16.0934 0 0
11:35 am 11:35 Mostly Cloudy 78 25.6 69 20.3 73 73 SE 6 9 30 1016 10 16.0934 0 0
11:55 am 11:55 Mostly Cloudy 78 25.5 69 20.5 74 74 SSE 7 11 30 1016 10 16.0934 0 0
12:15 pm 12:15 Mostly Cloudy 78 25.7 69 20.4 73 73 SSE 8 13 30 1016 10 16.0934 0 0
12:35 pm 12:35 Mostly Cloudy 80 26.6 69 20.8 71 71 SE 8 13 30 1016 10 16.0934 0 0
12:55 pm 12:55 Mostly Cloudy 80 26.5 70 20.9 71 71 SE 6 9 30 1016 10 16.0934 0 0
1:15 pm 13:15 Mostly Cloudy 80 26.5 70 21.2 73 73 SE 8 13 30 1016 10 16.0934 0 0
1:35 pm 13:35 Mostly Cloudy 80 26.9 71 21.4 72 72 ESE 9 15 30 1016 10 16.0934 0 0
1:55 pm 13:55 Mostly Cloudy 81 27.1 71 21.7 72 72 E 8 13 29.97 1015 10 16.0934 0 0
2:15 pm 14:15 Mostly Cloudy 81 27.4 71 21.7 71 71 ESE 8 13 29.97 1015 10 16.0934 0 0
2:35 pm 14:35 Partly Cloudy 82 27.6 70 21.3 69 69 E 7 11 29.97 1015 10 16.0934 0 0
2:55 pm 14:55 Mostly Cloudy 83 28.1 71 21.9 69 69 E 8 13 29.94 1014 10 16.0934 0 0
3:15 pm 15:15 Partly Cloudy 82 27.8 71 21.8 70 70 ESE 10 17 29.94 1014 10 16.0934 0 0
3:35 pm 15:35 Partly Cloudy 83 28.2 71 21.7 68 68 E 8 13 29.94 1014 10 16.0934 0 0
3:55 pm 15:55 Partly Cloudy 83 28.3 71 21.9 68 68 ESE 10 17 29.94 1014 10 16.0934 0 0
4:15 pm 16:15 Partly Cloudy 83 28.6 71 21.9 67 67 ESE 9 15 29.91 1013 10 16.0934 0 0
4:35 pm 16:35 Partly Cloudy 84 28.7 71 21.8 66 66 ESE 10 17 29.91 1013 10 16.0934 0 0
4:55 pm 16:55 Sunny 84 28.7 70 21.3 64 64 SE 7 11 29.91 1013 10 16.0934 0 0
5:15 pm 17:15 Sunny 84 28.7 71 21.4 65 65 SE 9 15 29.91 1013 10 16.0934 0 0
5:35 pm 17:35 Sunny 83 28.6 71 21.7 66 66 E 7 11 29.91 1013 10 16.0934 0 0
5:55 pm 17:55 Sunny 83 28.6 71 21.7 66 66 E 9 15 29.91 1013 10 16.0934 0 0
6:15 pm 18:15 Sunny 83 28.5 71 21.7 67 67 E 8 13 29.91 1013 10 16.0934 0 0
6:35 pm 18:35 Sunny 83 28.2 70 21.2 66 66 ESE 9 15 29.91 1013 10 16.0934 0 0
6:55 pm 18:55 Sunny 83 28.2 70 21.1 65 65 E 8 13 29.88 1012 10 16.0934 0 0
7:15 pm 19:15 Sunny 82 27.9 70 21.3 67 67 ESE 7 11 29.88 1012 10 16.0934 0 0
7:35 pm 19:35 Sunny 80 26.9 71 21.8 74 74 E 8 13 29.94 1014 10 16.0934 0 0
7:55 pm 19:55 Sunny 80 26.4 72 22 77 77 E 7 11 29.94 1014 10 16.0934 0 0
8:15 pm 20:15 Sunny 78 25.8 72 22 80 80 E 7 11 29.91 1013 10 16.0934 0 0
8:35 pm 20:35 Sunny 77 25.1 71 21.8 82 82 ESE 7 11 29.91 1013 10 16.0934 0 0
8:55 pm 20:55 Sunny 75 24.1 71 21.5 85 85 E 7 11 29.94 1014 10 16.0934 0 0
9:15 pm 21:15 Clear 74 23.6 70 21.2 86 86 ESE 7 11 29.97 1015 10 16.0934 0 0
9:35 pm 21:35 Clear 73 23 70 21 89 89 E 7 11 29.97 1015 10 16.0934 0 0
9:55 pm 21:55 Clear 73 23 70 21 89 89 E 8 13 29.97 1015 10 16.0934 0 0
10:15 pm 22:15 Clear 73 23 70 21 89 89 E 9 15 29.97 1015 10 16.0934 0 0
10:35 pm 22:35 Clear 73 23 69 20.8 87 87 ESE 9 15 29.97 1015 10 16.0934 0 0
10:55 pm 22:55 Clear 73 22.7 69 20.6 88 88 ESE 9 15 29.97 1015 10 16.0934 0 0
11:15 pm 23:15 Clear 73 22.5 69 20.7 90 90 ESE 7 11 29.97 1015 10 16.0934 0 0
11:35 pm 23:35 Clear 72 22.1 69 20.7 92 92 E 6 9 29.97 1015 10 16.0934 0 0
11:55 pm 23:55 Clear 71 21.8 69 20.6 93 93 E 6 9 30 1016 10 16.0934 0 0

Powered by AerisWeather